Location: Clinton NY
(43.0598°N, 75.3602°W)
Time: 02:47:42
(UTC-05:00)

Daily predictions for brighter satellites

Satellite Brightness Start Highest point End
(mag) Time Altitude Azimuth Time Altitude Azimuth Time Altitude Azimuth
USA 267 4.3 03:43:11 10° NE 03:46:54 37° NE 03:46:54 37° NE
Cosmos 1980 Rocket 4.3 03:59:54 18° NNE 04:01:25 20° NE 04:05:31 10° E
SJ 16-02 3.7 04:08:49 22° E 04:08:49 22° E 04:11:18 10° ESE
USA 234 3.1 04:18:15 10° SE 04:24:49 84° NE 04:24:58 83° N
Cosmos 1125 Rocket 4.3 04:25:24 48° ENE 04:25:24 48° ENE 04:30:20 10° SE
Lacrosse 5 rocket 3.0 04:29:42 36° ENE 04:29:42 36° ENE 04:32:53 10° ESE
COSMO-SKYMED 1 4.3 04:28:20 10° SE 04:32:07 30° ENE 04:33:01 28° NE
Cosmos 2369 3.9 04:33:30 68° SE 04:33:30 68° SE 04:38:28 10° SSE
SeaSat 1 4.1 04:28:19 10° NNE 04:30:26 26° NNE 04:30:26 26° NNE
Cosmos 2278 3.7 04:36:04 75° SE 04:36:04 75° SE 04:41:19 10° SSE
Cosmos 1241 Rocket 4.3 04:38:04 80° SSW 04:38:04 80° SSW 04:43:59 10° SSE
Cosmos 1634 Rocket 3.8 04:40:46 77° NW 04:41:10 82° W 04:47:30 10° S
Cosmos 1656 3.5 04:44:11 79° SE 04:44:11 79° SE 04:49:16 10° SSE
NOSS 3-4 (A) 3.8 04:52:08 56° WSW 04:52:40 57° WSW 05:00:03 10° SSE
NOSS 3-4 (C) 3.8 04:52:11 56° W 04:52:47 57° WSW 05:00:10 10° SSE
Cosmos 44 Rocket 3.8 04:54:51 31° S 04:56:48 55° ESE 05:01:25 10° NE
Cosmos 540 Rocket 3.3 04:59:17 78° WNW 04:59:17 78° WNW 05:04:27 10° NNE
Cosmos 2082 Rocket 2.1 05:00:21 18° SSW 05:04:42 88° WNW 05:10:27 10° NNE
Cosmos 1697 Rocket 2.6 05:05:47 45° NNW 05:07:38 88° WSW 05:13:14 10° SSE
Cosmos 372 Rocket 3.8 05:07:41 64° NW 05:08:22 75° WSW 05:13:27 10° SSE
CZ-2C R/B 3.6 05:09:54 10° NNE 05:14:36 42° E 05:19:06 10° S
CZ-4C R/B 4.2 05:14:34 10° S 05:18:53 28° ESE 05:23:39 10° NE
Cosmos 1833 Rocket 2.6 05:16:11 22° SW 05:19:50 66° WNW 05:25:27 10° NNE
SKYMED 2 3.4 05:15:41 10° SSE 05:20:02 84° W 05:21:38 39° NNW
CZ-4B R/B 4.2 05:20:10 10° N 05:23:34 29° NNW 05:23:34 29° NNW
Cosmos 1536 3.1 05:25:32 10° S 05:29:34 68° E 05:33:36 10° NNE
Feng Yun 1-1 Rocket 4.2 05:24:33 10° NNE 05:30:26 77° WNW 05:36:09 10° SSW
USA 267 4.0 05:26:26 10° NE 05:32:07 33° NNW 05:34:15 27° NW
NOAA 6 3.9 05:27:31 10° N 05:32:38 70° WNW 05:37:43 10° SSW
Meteor 1-13 Rocket 4.2 05:28:00 10° NNW 05:33:52 70° W 05:39:46 10° S
Meteor 1-11 Rocket 3.7 05:31:47 10° SSW 05:37:44 80° W 05:43:39 10° N
IDEFIX/ARIANE 42P 2.5 05:32:51 10° NNE 05:38:05 85° WNW 05:43:18 10° SSW
Cosmos 2151 Rocket 3.4 05:34:25 10° SSW 05:38:48 75° W 05:43:12 10° N
PAYLOAD A 4.0 05:36:22 10° N 05:41:49 76° WNW 05:47:11 10° SSW
Cosmos 2360 Rocket 4.4 05:39:38 10° N 05:43:36 19° NE 05:47:34 10° E
Cosmos 44 3.2 05:43:32 32° WSW 05:45:04 46° NW 05:49:19 10° NNE
Cosmos 1980 Rocket 2.1 05:41:42 18° NNW 05:46:03 75° WSW 05:51:42 10° SSE
SJ 16-02 2.0 05:45:52 32° W 05:46:17 33° W 05:50:14 10° SSW
Okean 2 Rocket 3.8 05:43:42 10° SW 05:47:44 32° WNW 05:51:48 10° N
Okean-O 2.8 05:44:08 10° N 05:48:24 48° WNW 05:52:40 10° SW
Cosmos 292 Rocket 4.3 05:48:57 15° WSW 05:52:19 35° WNW 05:56:41 10° N
Meteor 2-4 Rocket 3.6 05:47:20 10° NNW 05:52:39 60° W 05:58:02 10° S
Cosmos 2279 Rocket 4.4 05:48:36 10° NNW 05:54:15 37° W 05:59:52 10° SSW
Meteor 2-20 Rocket 4.3 05:48:09 10° SSW 05:54:16 76° W 06:00:24 10° N
RESURS DK-1 2.3 05:53:10 21° NNW 05:55:52 76° WSW 05:59:59 10° SSE
Ariane Rocket 4.4 05:54:21 10° NNE 05:59:08 41° E 06:03:53 10° SSE
CZ-4 R/B 3.6 05:55:45 10° NE 05:59:25 30° E 06:03:07 10° SSE
COSMOS 2441 4.4 05:54:37 10° NNE 05:59:31 88° ESE 06:04:20 10° SSW
SJ-12 3.9 05:55:32 10° NNE 05:59:38 87° ESE 06:03:41 10° SSW
Cosmos 1300 Rocket 3.4 05:56:44 10° SSW 06:01:01 70° W 06:05:20 10° N
Cosmos 1536 Rocket 3.8 05:59:35 11° NNW 06:03:30 45° W 06:07:37 10° SSW
Cosmos 1515 3.7 06:02:09 10° N 06:05:59 81° E 06:09:49 10° S
Lacrosse 5 rocket 2.4 06:05:24 21° WNW 06:07:41 34° SW 06:11:44 10° S
COSMO-SKYMED 1 3.6 06:04:39 10° SSW 06:08:15 25° W 06:10:14 18° NW
USA 234 4.3 06:02:47 10° S 06:08:15 28° SW 06:12:20 16° WNW
Meteor 1-4 Rocket 3.1 06:05:28 10° S 06:09:12 66° E 06:12:59 10° NNE
BREEZE-M DEB (TANK) 3.7 06:07:11 20° W 06:09:28 57° SSW 06:16:25 10° SE
SeaSat 1 4.0 06:07:20 10° N 06:10:08 15° NW 06:10:14 15° NW
Okean 2 3.4 06:09:33 10° N 06:13:39 83° E 06:17:44 10° S
Cosmos 1484 Rocket 3.0 06:11:41 10° NNE 06:15:38 74° ESE 06:19:28 10° S
Thor Agena Rocket 3.4 06:12:23 10° S 06:17:24 71° WSW 06:22:29 10° NNW
Cosmos 1025 Rocket 2.9 06:14:43 10° N 06:19:01 86° W 06:23:17 10° S
Cosmos 773 Rocket 3.9 06:14:02 10° SSW 06:19:10 87° WNW 06:24:22 10° NNE
SL-16 R/B 2.5 06:13:36 10° NNW 06:19:18 73° ENE 06:24:57 10° SSE
COSMOS 2487 4.4 06:25:09 13° NW 06:25:09 13° NW 06:26:13 10° NNW
Cosmos 1184 Rocket 3.4 06:21:05 10° N 06:24:23 58° ENE 06:27:39 10° SSE
Okean 1 Rocket 3.1 06:22:36 10° SSW 06:26:53 58° W 06:31:15 10° N
Cosmos 2322 Rocket 2.3 06:22:48 10° NNW 06:28:30 83° ENE 06:34:11 10° SSE
GEOS 3 Rocket 3.9 06:26:29 10° NNE 06:31:42 50° NW 06:36:51 10° WSW
MSX 4.0 06:27:37 10° N 06:33:08 48° WNW 06:38:35 10° SW
ATLAS 5 CENTAUR R/B 4.3 06:30:37 10° N 06:33:31 14° NNE 06:36:34 10° NE
Cosmos 1437 Rocket 3.8 06:32:20 10° SW 06:35:39 25° WNW 06:38:57 10° NNW
Cosmos 1538 Rocket 4.1 06:31:07 10° SW 06:36:11 52° WNW 06:41:21 10° NNE
Cosmos 1743 4.1 06:32:42 10° SSE 06:36:19 43° E 06:39:57 10° NNE
Cosmos 44 Rocket 4.4 06:34:56 10° W 06:38:39 23° NW 06:42:25 10° N
Cosmos 1975 2.8 06:39:06 10° S 06:43:05 89° E 06:47:05 10° N
Cosmos 923 Rocket 4.1 06:39:37 10° SSW 06:44:53 86° ESE 06:50:09 10° NNE
CSL-04 Rocket 3.7 06:39:48 10° N 06:45:21 70° WNW 06:50:51 10° SSW
ERS-2 4.2 06:42:25 10° NNE 06:45:47 33° E 06:49:08 10° SSE
YAOGAN 1 3.0 06:43:12 10° NNE 06:47:32 70° ESE 06:51:51 10° S
Cosmos 1892 Rocket 3.8 06:43:17 10° N 06:47:43 76° E 06:52:05 10° SSE
Cosmos 2082 Rocket 3.6 06:46:03 10° W 06:49:38 17° NW 06:53:13 10° N
Cosmos 1697 Rocket 4.5 06:48:45 10° WNW 06:50:41 12° W 06:52:37 10° WSW
Meteor 1-12 Rocket 4.5 06:45:21 10° S 06:51:05 79° E 06:56:47 10° NNE
Timation 2 Rocket 4.5 06:45:57 10° SW 06:52:31 47° WNW 06:59:08 10° NNE
CZ-2C R/B 3.5 06:48:43 10° NNW 06:52:33 23° WNW 06:56:17 10° WSW
